Data supplied by UK-AIR on 20/9/2009
All Data GMT hour ending 
Status: R =Ratified P=Provisional,P*=As supplied
,,Cambridge Roadside,,,,,,,,,,,,,,,,,,,,,,,
Date,time,"Nitric oxide",status,unit,"Nitrogen dioxide",status,unit,"Nitrogen oxides as nitrogen dioxide",status,unit
 
01-01-2000,01:00,10,R,ugm-3,42,R,ugm-3,57,R,ugm-3
01-01-2000,02:00,16,R,ugm-3,34,R,ugm-3,59,R,ugm-3
01-01-2000,03:00,10,R,ugm-3,23,R,ugm-3,38,R,ugm-3
01-01-2000,04:00,10,R,ugm-3,25,R,ugm-3,40,R,ugm-3
01-01-2000,05:00,9,R,ugm-3,27,R,ugm-3,40,R,ugm-3
01-01-2000,06:00,8,R,ugm-3,27,R,ugm-3,38,R,ugm-3
01-01-2000,07:00,6,R,ugm-3,27,R,ugm-3,36,R,ugm-3
01-01-2000,08:00,8,R,ugm-3,29,R,ugm-3,40,R,ugm-3
01-01-2000,09:00,6,R,ugm-3,32,R,ugm-3,42,R,ugm-3
01-01-2000,10:00,26,R,ugm-3,38,R,ugm-3,78,R,ugm-3
01-01-2000,11:00,14,R,ugm-3,29,R,ugm-3,50,R,ugm-3
01-01-2000,12:00,15,R,ugm-3,27,R,ugm-3,50,R,ugm-3
01-01-2000,13:00,10,R,ugm-3,27,R,ugm-3,42,R,ugm-3
01-01-2000,14:00,24,R,ugm-3,40,R,ugm-3,76,R,ugm-3
01-01-2000,15:00,28,R,ugm-3,40,R,ugm-3,82,R,ugm-3
01-01-2000,16:00,26,R,ugm-3,46,R,ugm-3,86,R,ugm-3
01-01-2000,17:00,21,R,ugm-3,52,R,ugm-3,84,R,ugm-3
01-01-2000,18:00,28,R,ugm-3,57,R,ugm-3,99,R,ugm-3
01-01-2000,19:00,40,R,ugm-3,55,R,ugm-3,117,R,ugm-3
01-01-2000,20:00,35,R,ugm-3,52,R,ugm-3,105,R,ugm-3
01-01-2000,21:00,29,R,ugm-3,53,R,ugm-3,97,R,ugm-3
01-01-2000,22:00,36,R,ugm-3,53,R,ugm-3,109,R,ugm-3
01-01-2000,23:00,13,R,ugm-3,44,R,ugm-3,63,R,ugm-3
01-01-2000,24:00,11,R,ugm-3,38,R,ugm-3,55,R,ugm-3
02-01-2000,01:00,5,R,ugm-3,34,R,ugm-3,42,R,ugm-3
02-01-2000,02:00,3,R,ugm-3,36,R,ugm-3,40,R,ugm-3
02-01-2000,03:00,1,R,ugm-3,40,R,ugm-3,42,R,ugm-3
02-01-2000,04:00,1,R,ugm-3,27,R,ugm-3,29,R,ugm-3
02-01-2000,05:00,3,R,ugm-3,17,R,ugm-3,21,R,ugm-3
02-01-2000,06:00,1,R,ugm-3,15,R,ugm-3,17,R,ugm-3
02-01-2000,07:00,15,R,ugm-3,17,R,ugm-3,40,R,ugm-3
02-01-2000,08:00,6,R,ugm-3,29,R,ugm-3,38,R,ugm-3
02-01-2000,09:00,5,R,ugm-3,19,R,ugm-3,27,R,ugm-3
02-01-2000,10:00,13,R,ugm-3,29,R,ugm-3,48,R,ugm-3
02-01-2000,11:00,26,R,ugm-3,44,R,ugm-3,84,R,ugm-3
02-01-2000,12:00,29,R,ugm-3,42,R,ugm-3,86,R,ugm-3
02-01-2000,13:00,34,R,ugm-3,42,R,ugm-3,94,R,ugm-3
02-01-2000,14:00,33,R,ugm-3,42,R,ugm-3,92,R,ugm-3
02-01-2000,15:00,39,R,ugm-3,50,R,ugm-3,109,R,ugm-3
02-01-2000,16:00,45,R,ugm-3,53,R,ugm-3,122,R,ugm-3
02-01-2000,17:00,71,R,ugm-3,61,R,ugm-3,170,R,ugm-3
02-01-2000,18:00,28,R,ugm-3,55,R,ugm-3,97,R,ugm-3
02-01-2000,19:00,38,R,ugm-3,63,R,ugm-3,120,R,ugm-3
02-01-2000,20:00,45,R,ugm-3,69,R,ugm-3,138,R,ugm-3
02-01-2000,21:00,15,R,ugm-3,55,R,ugm-3,78,R,ugm-3
02-01-2000,22:00,14,R,ugm-3,34,R,ugm-3,55,R,ugm-3
02-01-2000,23:00,9,R,ugm-3,23,R,ugm-3,36,R,ugm-3
02-01-2000,24:00,5,R,ugm-3,17,R,ugm-3,25,R,ugm-3
03-01-2000,01:00,3,R,ugm-3,11,R,ugm-3,15,R,ugm-3
03-01-2000,02:00,1,R,ugm-3,10,R,ugm-3,11,R,ugm-3
03-01-2000,03:00,1,R,ugm-3,10,R,ugm-3,11,R,ugm-3
03-01-2000,04:00,0,R,ugm-3,10,R,ugm-3,10,R,ugm-3
03-01-2000,05:00,0,R,ugm-3,8,R,ugm-3,8,R,ugm-3
03-01-2000,06:00,0,R,ugm-3,8,R,ugm-3,8,R,ugm-3
03-01-2000,07:00,1,R,ugm-3,11,R,ugm-3,13,R,ugm-3
03-01-2000,08:00,5,R,ugm-3,17,R,ugm-3,25,R,ugm-3
03-01-2000,09:00,8,R,ugm-3,21,R,ugm-3,32,R,ugm-3
03-01-2000,10:00,11,R,ugm-3,21,R,ugm-3,38,R,ugm-3
03-01-2000,11:00,19,R,ugm-3,27,R,ugm-3,55,R,ugm-3
03-01-2000,12:00,30,R,ugm-3,38,R,ugm-3,84,R,ugm-3
03-01-2000,13:00,46,R,ugm-3,42,R,ugm-3,113,R,ugm-3
03-01-2000,14:00,59,R,ugm-3,53,R,ugm-3,143,R,ugm-3
03-01-2000,15:00,73,R,ugm-3,55,R,ugm-3,166,R,ugm-3
03-01-2000,16:00,63,R,ugm-3,55,R,ugm-3,151,R,ugm-3
03-01-2000,17:00,61,R,ugm-3,63,R,ugm-3,157,R,ugm-3
03-01-2000,18:00,65,R,ugm-3,67,R,ugm-3,166,R,ugm-3
03-01-2000,19:00,28,R,ugm-3,42,R,ugm-3,84,R,ugm-3
03-01-2000,20:00,30,R,ugm-3,53,R,ugm-3,99,R,ugm-3
03-01-2000,21:00,33,R,ugm-3,55,R,ugm-3,105,R,ugm-3
03-01-2000,22:00,18,R,ugm-3,38,R,ugm-3,65,R,ugm-3
03-01-2000,23:00,30,R,ugm-3,48,R,ugm-3,94,R,ugm-3
03-01-2000,24:00,44,R,ugm-3,61,R,ugm-3,128,R,ugm-3
04-01-2000,01:00,,,,,,,,,
04-01-2000,02:00,10,R,ugm-3,32,R,ugm-3,48,R,ugm-3
04-01-2000,03:00,6,R,ugm-3,27,R,ugm-3,36,R,ugm-3
04-01-2000,04:00,1,R,ugm-3,25,R,ugm-3,27,R,ugm-3
04-01-2000,05:00,5,R,ugm-3,27,R,ugm-3,34,R,ugm-3
04-01-2000,06:00,8,R,ugm-3,32,R,ugm-3,44,R,ugm-3
04-01-2000,07:00,34,R,ugm-3,40,R,ugm-3,92,R,ugm-3
04-01-2000,08:00,80,R,ugm-3,57,R,ugm-3,180,R,ugm-3
04-01-2000,09:00,124,R,ugm-3,67,R,ugm-3,256,R,ugm-3
04-01-2000,10:00,176,R,ugm-3,76,R,ugm-3,346,R,ugm-3
04-01-2000,11:00,164,R,ugm-3,78,R,ugm-3,329,R,ugm-3
04-01-2000,12:00,213,R,ugm-3,92,R,ugm-3,416,R,ugm-3
04-01-2000,13:00,156,R,ugm-3,76,R,ugm-3,315,R,ugm-3
04-01-2000,14:00,126,R,ugm-3,76,R,ugm-3,269,R,ugm-3
04-01-2000,15:00,81,R,ugm-3,61,R,ugm-3,185,R,ugm-3
04-01-2000,16:00,70,R,ugm-3,57,R,ugm-3,164,R,ugm-3
04-01-2000,17:00,131,R,ugm-3,76,R,ugm-3,277,R,ugm-3
04-01-2000,18:00,175,R,ugm-3,82,R,ugm-3,350,R,ugm-3
04-01-2000,19:00,78,R,ugm-3,69,R,ugm-3,187,R,ugm-3
04-01-2000,20:00,39,R,ugm-3,55,R,ugm-3,115,R,ugm-3
04-01-2000,21:00,36,R,ugm-3,53,R,ugm-3,109,R,ugm-3
04-01-2000,22:00,20,R,ugm-3,40,R,ugm-3,71,R,ugm-3
04-01-2000,23:00,33,R,ugm-3,46,R,ugm-3,96,R,ugm-3
04-01-2000,24:00,19,R,ugm-3,40,R,ugm-3,69,R,ugm-3
05-01-2000,01:00,8,R,ugm-3,31,R,ugm-3,42,R,ugm-3
05-01-2000,02:00,3,R,ugm-3,31,R,ugm-3,34,R,ugm-3
05-01-2000,03:00,3,R,ugm-3,32,R,ugm-3,36,R,ugm-3
05-01-2000,04:00,1,R,ugm-3,29,R,ugm-3,31,R,ugm-3
05-01-2000,05:00,3,R,ugm-3,29,R,ugm-3,32,R,ugm-3
05-01-2000,06:00,5,R,ugm-3,31,R,ugm-3,38,R,ugm-3
05-01-2000,07:00,33,R,ugm-3,48,R,ugm-3,97,R,ugm-3
05-01-2000,08:00,48,R,ugm-3,67,R,ugm-3,139,R,ugm-3
05-01-2000,09:00,130,R,ugm-3,82,R,ugm-3,281,R,ugm-3
05-01-2000,10:00,94,R,ugm-3,78,R,ugm-3,222,R,ugm-3
05-01-2000,11:00,85,R,ugm-3,73,R,ugm-3,202,R,ugm-3
05-01-2000,12:00,86,R,ugm-3,71,R,ugm-3,202,R,ugm-3
05-01-2000,13:00,59,R,ugm-3,52,R,ugm-3,141,R,ugm-3
05-01-2000,14:00,49,R,ugm-3,52,R,ugm-3,126,R,ugm-3
05-01-2000,15:00,49,R,ugm-3,53,R,ugm-3,128,R,ugm-3
05-01-2000,16:00,48,R,ugm-3,46,R,ugm-3,118,R,ugm-3
05-01-2000,17:00,59,R,ugm-3,57,R,ugm-3,147,R,ugm-3
05-01-2000,18:00,61,R,ugm-3,61,R,ugm-3,155,R,ugm-3
05-01-2000,19:00,30,R,ugm-3,48,R,ugm-3,94,R,ugm-3
05-01-2000,20:00,18,R,ugm-3,40,R,ugm-3,67,R,ugm-3
05-01-2000,21:00,13,R,ugm-3,31,R,ugm-3,50,R,ugm-3
05-01-2000,22:00,9,R,ugm-3,25,R,ugm-3,38,R,ugm-3
05-01-2000,23:00,9,R,ugm-3,19,R,ugm-3,32,R,ugm-3
05-01-2000,24:00,6,R,ugm-3,15,R,ugm-3,25,R,ugm-3
06-01-2000,01:00,1,R,ugm-3,13,R,ugm-3,15,R,ugm-3
06-01-2000,02:00,0,R,ugm-3,11,R,ugm-3,11,R,ugm-3
06-01-2000,03:00,0,R,ugm-3,11,R,ugm-3,11,R,ugm-3
06-01-2000,04:00,0,R,ugm-3,11,R,ugm-3,11,R,ugm-3
06-01-2000,05:00,3,R,ugm-3,11,R,ugm-3,15,R,ugm-3
06-01-2000,06:00,1,R,ugm-3,13,R,ugm-3,15,R,ugm-3
06-01-2000,07:00,15,R,ugm-3,23,R,ugm-3,46,R,ugm-3
06-01-2000,08:00,35,R,ugm-3,40,R,ugm-3,94,R,ugm-3
06-01-2000,09:00,81,R,ugm-3,67,R,ugm-3,191,R,ugm-3
06-01-2000,10:00,76,R,ugm-3,63,R,ugm-3,180,R,ugm-3
06-01-2000,11:00,79,R,ugm-3,61,R,ugm-3,181,R,ugm-3
06-01-2000,12:00,51,R,ugm-3,53,R,ugm-3,132,R,ugm-3
06-01-2000,13:00,44,R,ugm-3,46,R,ugm-3,113,R,ugm-3
06-01-2000,14:00,54,R,ugm-3,53,R,ugm-3,136,R,ugm-3
06-01-2000,15:00,60,R,ugm-3,55,R,ugm-3,147,R,ugm-3
06-01-2000,16:00,98,R,ugm-3,69,R,ugm-3,218,R,ugm-3
06-01-2000,17:00,169,R,ugm-3,82,R,ugm-3,340,R,ugm-3
06-01-2000,18:00,130,R,ugm-3,74,R,ugm-3,273,R,ugm-3
06-01-2000,19:00,71,R,ugm-3,61,R,ugm-3,170,R,ugm-3
06-01-2000,20:00,103,R,ugm-3,69,R,ugm-3,225,R,ugm-3
06-01-2000,21:00,96,R,ugm-3,65,R,ugm-3,212,R,ugm-3
06-01-2000,22:00,81,R,ugm-3,63,R,ugm-3,187,R,ugm-3
06-01-2000,23:00,79,R,ugm-3,59,R,ugm-3,180,R,ugm-3
06-01-2000,24:00,59,R,ugm-3,55,R,ugm-3,145,R,ugm-3
07-01-2000,01:00,31,R,ugm-3,53,R,ugm-3,101,R,ugm-3
07-01-2000,02:00,14,R,ugm-3,52,R,ugm-3,73,R,ugm-3
07-01-2000,03:00,14,R,ugm-3,50,R,ugm-3,71,R,ugm-3
07-01-2000,04:00,14,R,ugm-3,50,R,ugm-3,71,R,ugm-3
07-01-2000,05:00,8,R,ugm-3,32,R,ugm-3,44,R,ugm-3
07-01-2000,06:00,8,R,ugm-3,25,R,ugm-3,36,R,ugm-3
07-01-2000,07:00,33,R,ugm-3,46,R,ugm-3,96,R,ugm-3
07-01-2000,08:00,60,R,ugm-3,42,R,ugm-3,134,R,ugm-3
07-01-2000,09:00,76,R,ugm-3,59,R,ugm-3,176,R,ugm-3
07-01-2000,10:00,58,R,ugm-3,48,R,ugm-3,136,R,ugm-3
07-01-2000,11:00,60,R,ugm-3,50,R,ugm-3,141,R,ugm-3
07-01-2000,12:00,56,R,ugm-3,52,R,ugm-3,138,R,ugm-3
07-01-2000,13:00,50,R,ugm-3,48,R,ugm-3,124,R,ugm-3
07-01-2000,14:00,44,R,ugm-3,46,R,ugm-3,113,R,ugm-3
07-01-2000,15:00,61,R,ugm-3,53,R,ugm-3,147,R,ugm-3
07-01-2000,16:00,61,R,ugm-3,57,R,ugm-3,151,R,ugm-3
07-01-2000,17:00,68,R,ugm-3,57,R,ugm-3,160,R,ugm-3
07-01-2000,18:00,58,R,ugm-3,46,R,ugm-3,134,R,ugm-3
07-01-2000,19:00,40,R,ugm-3,42,R,ugm-3,103,R,ugm-3
07-01-2000,20:00,24,R,ugm-3,34,R,ugm-3,71,R,ugm-3
07-01-2000,21:00,28,R,ugm-3,32,R,ugm-3,74,R,ugm-3
07-01-2000,22:00,16,R,ugm-3,25,R,ugm-3,50,R,ugm-3
07-01-2000,23:00,20,R,ugm-3,34,R,ugm-3,65,R,ugm-3
07-01-2000,24:00,21,R,ugm-3,27,R,ugm-3,59,R,ugm-3
08-01-2000,01:00,6,R,ugm-3,17,R,ugm-3,27,R,ugm-3
08-01-2000,02:00,4,R,ugm-3,19,R,ugm-3,25,R,ugm-3
08-01-2000,03:00,5,R,ugm-3,15,R,ugm-3,23,R,ugm-3
08-01-2000,04:00,4,R,ugm-3,15,R,ugm-3,21,R,ugm-3
08-01-2000,05:00,5,R,ugm-3,13,R,ugm-3,21,R,ugm-3
08-01-2000,06:00,6,R,ugm-3,17,R,ugm-3,27,R,ugm-3
08-01-2000,07:00,18,R,ugm-3,31,R,ugm-3,57,R,ugm-3
08-01-2000,08:00,50,R,ugm-3,48,R,ugm-3,124,R,ugm-3
08-01-2000,09:00,73,R,ugm-3,55,R,ugm-3,166,R,ugm-3
08-01-2000,10:00,63,R,ugm-3,48,R,ugm-3,143,R,ugm-3
08-01-2000,11:00,93,R,ugm-3,55,R,ugm-3,197,R,ugm-3
08-01-2000,12:00,83,R,ugm-3,55,R,ugm-3,181,R,ugm-3
08-01-2000,13:00,63,R,ugm-3,50,R,ugm-3,145,R,ugm-3
08-01-2000,14:00,53,R,ugm-3,48,R,ugm-3,128,R,ugm-3
08-01-2000,15:00,65,R,ugm-3,55,R,ugm-3,155,R,ugm-3
08-01-2000,16:00,79,R,ugm-3,55,R,ugm-3,176,R,ugm-3
08-01-2000,17:00,94,R,ugm-3,63,R,ugm-3,206,R,ugm-3
08-01-2000,18:00,100,R,ugm-3,63,R,ugm-3,216,R,ugm-3
08-01-2000,19:00,90,R,ugm-3,65,R,ugm-3,202,R,ugm-3
08-01-2000,20:00,43,R,ugm-3,48,R,ugm-3,113,R,ugm-3
08-01-2000,21:00,50,R,ugm-3,50,R,ugm-3,126,R,ugm-3
08-01-2000,22:00,45,R,ugm-3,44,R,ugm-3,113,R,ugm-3
08-01-2000,23:00,55,R,ugm-3,48,R,ugm-3,132,R,ugm-3
08-01-2000,24:00,54,R,ugm-3,44,R,ugm-3,126,R,ugm-3
09-01-2000,01:00,25,R,ugm-3,34,R,ugm-3,73,R,ugm-3
09-01-2000,02:00,18,R,ugm-3,32,R,ugm-3,59,R,ugm-3
09-01-2000,03:00,11,R,ugm-3,31,R,ugm-3,48,R,ugm-3
09-01-2000,04:00,8,R,ugm-3,29,R,ugm-3,40,R,ugm-3
09-01-2000,05:00,8,R,ugm-3,31,R,ugm-3,42,R,ugm-3
09-01-2000,06:00,3,R,ugm-3,25,R,ugm-3,29,R,ugm-3
09-01-2000,07:00,3,R,ugm-3,27,R,ugm-3,31,R,ugm-3
09-01-2000,08:00,25,R,ugm-3,50,R,ugm-3,88,R,ugm-3
09-01-2000,09:00,20,R,ugm-3,40,R,ugm-3,71,R,ugm-3
09-01-2000,10:00,33,R,ugm-3,40,R,ugm-3,90,R,ugm-3
09-01-2000,11:00,49,R,ugm-3,44,R,ugm-3,118,R,ugm-3
09-01-2000,12:00,35,R,ugm-3,44,R,ugm-3,97,R,ugm-3
09-01-2000,13:00,46,R,ugm-3,46,R,ugm-3,117,R,ugm-3
09-01-2000,14:00,46,R,ugm-3,44,R,ugm-3,115,R,ugm-3
09-01-2000,15:00,39,R,ugm-3,44,R,ugm-3,103,R,ugm-3
09-01-2000,16:00,93,R,ugm-3,57,R,ugm-3,199,R,ugm-3
09-01-2000,17:00,175,R,ugm-3,65,R,ugm-3,332,R,ugm-3
09-01-2000,18:00,155,R,ugm-3,65,R,ugm-3,302,R,ugm-3
09-01-2000,19:00,131,R,ugm-3,61,R,ugm-3,262,R,ugm-3
09-01-2000,20:00,96,R,ugm-3,55,R,ugm-3,202,R,ugm-3
09-01-2000,21:00,90,R,ugm-3,55,R,ugm-3,193,R,ugm-3
09-01-2000,22:00,80,R,ugm-3,53,R,ugm-3,176,R,ugm-3
09-01-2000,23:00,78,R,ugm-3,53,R,ugm-3,172,R,ugm-3
09-01-2000,24:00,53,R,ugm-3,50,R,ugm-3,130,R,ugm-3
10-01-2000,01:00,43,R,ugm-3,50,R,ugm-3,115,R,ugm-3
10-01-2000,02:00,23,R,ugm-3,48,R,ugm-3,82,R,ugm-3
10-01-2000,03:00,21,R,ugm-3,46,R,ugm-3,78,R,ugm-3
10-01-2000,04:00,15,R,ugm-3,44,R,ugm-3,67,R,ugm-3
10-01-2000,05:00,19,R,ugm-3,42,R,ugm-3,71,R,ugm-3
10-01-2000,06:00,28,R,ugm-3,44,R,ugm-3,86,R,ugm-3
10-01-2000,07:00,70,R,ugm-3,50,R,ugm-3,157,R,ugm-3
10-01-2000,08:00,146,R,ugm-3,63,R,ugm-3,287,R,ugm-3
10-01-2000,09:00,188,R,ugm-3,63,R,ugm-3,350,R,ugm-3
10-01-2000,10:00,149,R,ugm-3,61,R,ugm-3,288,R,ugm-3
10-01-2000,11:00,135,R,ugm-3,67,R,ugm-3,273,R,ugm-3
10-01-2000,12:00,120,R,ugm-3,63,R,ugm-3,246,R,ugm-3
10-01-2000,13:00,156,R,ugm-3,74,R,ugm-3,313,R,ugm-3
10-01-2000,14:00,,,,,,,,,
10-01-2000,15:00,,,,,,,,,
10-01-2000,16:00,,,,,,,,,
10-01-2000,17:00,,,,,,,,,
10-01-2000,18:00,,,,,,,,,
10-01-2000,19:00,,,,,,,,,
10-01-2000,20:00,,,,,,,,,
10-01-2000,21:00,,,,,,,,,
10-01-2000,22:00,,,,,,,,,
10-01-2000,23:00,,,,,,,,,
10-01-2000,24:00,,,,,,,,,
11-01-2000,01:00,,,,,,,,,
11-01-2000,02:00,,,,,,,,,
11-01-2000,03:00,,,,,,,,,
11-01-2000,04:00,,,,,,,,,
11-01-2000,05:00,,,,,,,,,
11-01-2000,06:00,,,,,,,,,
11-01-2000,07:00,23,R,ugm-3,31,R,ugm-3,65,R,ugm-3
11-01-2000,08:00,48,R,ugm-3,42,R,ugm-3,115,R,ugm-3
11-01-2000,09:00,108,R,ugm-3,59,R,ugm-3,223,R,ugm-3
11-01-2000,10:00,88,R,ugm-3,63,R,ugm-3,197,R,ugm-3
11-01-2000,11:00,80,R,ugm-3,57,R,ugm-3,180,R,ugm-3
11-01-2000,12:00,78,R,ugm-3,57,R,ugm-3,176,R,ugm-3
11-01-2000,13:00,64,R,ugm-3,53,R,ugm-3,151,R,ugm-3
11-01-2000,14:00,58,R,ugm-3,52,R,ugm-3,139,R,ugm-3
11-01-2000,15:00,80,R,ugm-3,55,R,ugm-3,178,R,ugm-3
11-01-2000,16:00,76,R,ugm-3,55,R,ugm-3,172,R,ugm-3
11-01-2000,17:00,81,R,ugm-3,61,R,ugm-3,185,R,ugm-3
11-01-2000,18:00,69,R,ugm-3,55,R,ugm-3,160,R,ugm-3
11-01-2000,19:00,46,R,ugm-3,50,R,ugm-3,120,R,ugm-3
11-01-2000,20:00,28,R,ugm-3,48,R,ugm-3,90,R,ugm-3
11-01-2000,21:00,20,R,ugm-3,42,R,ugm-3,73,R,ugm-3
11-01-2000,22:00,16,R,ugm-3,34,R,ugm-3,59,R,ugm-3
11-01-2000,23:00,18,R,ugm-3,31,R,ugm-3,57,R,ugm-3
11-01-2000,24:00,14,R,ugm-3,27,R,ugm-3,48,R,ugm-3
12-01-2000,01:00,9,R,ugm-3,21,R,ugm-3,34,R,ugm-3
12-01-2000,02:00,6,R,ugm-3,17,R,ugm-3,27,R,ugm-3
12-01-2000,03:00,8,R,ugm-3,15,R,ugm-3,27,R,ugm-3
12-01-2000,04:00,5,R,ugm-3,13,R,ugm-3,21,R,ugm-3
12-01-2000,05:00,5,R,ugm-3,13,R,ugm-3,21,R,ugm-3
12-01-2000,06:00,8,R,ugm-3,15,R,ugm-3,27,R,ugm-3
12-01-2000,07:00,16,R,ugm-3,25,R,ugm-3,50,R,ugm-3
12-01-2000,08:00,33,R,ugm-3,38,R,ugm-3,88,R,ugm-3
12-01-2000,09:00,76,R,ugm-3,55,R,ugm-3,172,R,ugm-3
12-01-2000,10:00,54,R,ugm-3,48,R,ugm-3,130,R,ugm-3
12-01-2000,11:00,43,R,ugm-3,48,R,ugm-3,113,R,ugm-3
12-01-2000,12:00,53,R,ugm-3,44,R,ugm-3,124,R,ugm-3
12-01-2000,13:00,50,R,ugm-3,44,R,ugm-3,120,R,ugm-3
12-01-2000,14:00,44,R,ugm-3,40,R,ugm-3,107,R,ugm-3
12-01-2000,15:00,44,R,ugm-3,46,R,ugm-3,113,R,ugm-3
12-01-2000,16:00,45,R,ugm-3,46,R,ugm-3,115,R,ugm-3
12-01-2000,17:00,64,R,ugm-3,53,R,ugm-3,151,R,ugm-3
12-01-2000,18:00,46,R,ugm-3,46,R,ugm-3,117,R,ugm-3
12-01-2000,19:00,39,R,ugm-3,52,R,ugm-3,111,R,ugm-3
12-01-2000,20:00,24,R,ugm-3,44,R,ugm-3,80,R,ugm-3
12-01-2000,21:00,16,R,ugm-3,32,R,ugm-3,57,R,ugm-3
12-01-2000,22:00,11,R,ugm-3,27,R,ugm-3,44,R,ugm-3
12-01-2000,23:00,14,R,ugm-3,29,R,ugm-3,50,R,ugm-3
12-01-2000,24:00,10,R,ugm-3,29,R,ugm-3,44,R,ugm-3
13-01-2000,01:00,5,R,ugm-3,21,R,ugm-3,29,R,ugm-3
13-01-2000,02:00,5,R,ugm-3,19,R,ugm-3,27,R,ugm-3
13-01-2000,03:00,4,R,ugm-3,17,R,ugm-3,23,R,ugm-3
13-01-2000,04:00,4,R,ugm-3,15,R,ugm-3,21,R,ugm-3
13-01-2000,05:00,4,R,ugm-3,17,R,ugm-3,23,R,ugm-3
13-01-2000,06:00,6,R,ugm-3,21,R,ugm-3,31,R,ugm-3
13-01-2000,07:00,30,R,ugm-3,32,R,ugm-3,78,R,ugm-3
13-01-2000,08:00,66,R,ugm-3,50,R,ugm-3,151,R,ugm-3
13-01-2000,09:00,143,R,ugm-3,63,R,ugm-3,281,R,ugm-3
13-01-2000,10:00,113,R,ugm-3,59,R,ugm-3,231,R,ugm-3
13-01-2000,11:00,76,R,ugm-3,55,R,ugm-3,172,R,ugm-3
13-01-2000,12:00,90,R,ugm-3,63,R,ugm-3,201,R,ugm-3
13-01-2000,13:00,73,R,ugm-3,61,R,ugm-3,172,R,ugm-3
13-01-2000,14:00,134,R,ugm-3,69,R,ugm-3,273,R,ugm-3
13-01-2000,15:00,134,R,ugm-3,67,R,ugm-3,271,R,ugm-3
13-01-2000,16:00,159,R,ugm-3,73,R,ugm-3,315,R,ugm-3
13-01-2000,17:00,224,R,ugm-3,78,R,ugm-3,420,R,ugm-3
13-01-2000,18:00,205,R,ugm-3,74,R,ugm-3,388,R,ugm-3
13-01-2000,19:00,164,R,ugm-3,74,R,ugm-3,325,R,ugm-3
13-01-2000,20:00,143,R,ugm-3,69,R,ugm-3,287,R,ugm-3
13-01-2000,21:00,111,R,ugm-3,65,R,ugm-3,235,R,ugm-3
13-01-2000,22:00,79,R,ugm-3,63,R,ugm-3,183,R,ugm-3
13-01-2000,23:00,74,R,ugm-3,57,R,ugm-3,170,R,ugm-3
13-01-2000,24:00,61,R,ugm-3,53,R,ugm-3,147,R,ugm-3
14-01-2000,01:00,34,R,ugm-3,48,R,ugm-3,99,R,ugm-3
14-01-2000,02:00,21,R,ugm-3,48,R,ugm-3,80,R,ugm-3
14-01-2000,03:00,10,R,ugm-3,40,R,ugm-3,55,R,ugm-3
14-01-2000,04:00,5,R,ugm-3,27,R,ugm-3,34,R,ugm-3
14-01-2000,05:00,4,R,ugm-3,21,R,ugm-3,27,R,ugm-3
14-01-2000,06:00,6,R,ugm-3,23,R,ugm-3,32,R,ugm-3
14-01-2000,07:00,20,R,ugm-3,36,R,ugm-3,67,R,ugm-3
14-01-2000,08:00,58,R,ugm-3,50,R,ugm-3,138,R,ugm-3
14-01-2000,09:00,136,R,ugm-3,61,R,ugm-3,269,R,ugm-3
14-01-2000,10:00,114,R,ugm-3,63,R,ugm-3,237,R,ugm-3
14-01-2000,11:00,90,R,ugm-3,59,R,ugm-3,197,R,ugm-3
14-01-2000,12:00,70,R,ugm-3,48,R,ugm-3,155,R,ugm-3
14-01-2000,13:00,66,R,ugm-3,50,R,ugm-3,151,R,ugm-3
14-01-2000,14:00,79,R,ugm-3,61,R,ugm-3,181,R,ugm-3
14-01-2000,15:00,93,R,ugm-3,59,R,ugm-3,201,R,ugm-3
14-01-2000,16:00,99,R,ugm-3,55,R,ugm-3,206,R,ugm-3
14-01-2000,17:00,101,R,ugm-3,55,R,ugm-3,210,R,ugm-3
14-01-2000,18:00,104,R,ugm-3,52,R,ugm-3,210,R,ugm-3
14-01-2000,19:00,61,R,ugm-3,42,R,ugm-3,136,R,ugm-3
14-01-2000,20:00,33,R,ugm-3,32,R,ugm-3,82,R,ugm-3
14-01-2000,21:00,26,R,ugm-3,31,R,ugm-3,71,R,ugm-3
14-01-2000,22:00,18,R,ugm-3,27,R,ugm-3,53,R,ugm-3
14-01-2000,23:00,13,R,ugm-3,21,R,ugm-3,40,R,ugm-3
14-01-2000,24:00,18,R,ugm-3,25,R,ugm-3,52,R,ugm-3
15-01-2000,01:00,6,R,ugm-3,21,R,ugm-3,31,R,ugm-3
15-01-2000,02:00,3,R,ugm-3,17,R,ugm-3,21,R,ugm-3
15-01-2000,03:00,1,R,ugm-3,15,R,ugm-3,17,R,ugm-3
15-01-2000,04:00,0,R,ugm-3,11,R,ugm-3,11,R,ugm-3
15-01-2000,05:00,0,R,ugm-3,15,R,ugm-3,15,R,ugm-3
15-01-2000,06:00,1,R,ugm-3,17,R,ugm-3,19,R,ugm-3
15-01-2000,07:00,6,R,ugm-3,25,R,ugm-3,34,R,ugm-3
15-01-2000,08:00,21,R,ugm-3,36,R,ugm-3,69,R,ugm-3
15-01-2000,09:00,36,R,ugm-3,38,R,ugm-3,94,R,ugm-3
15-01-2000,10:00,46,R,ugm-3,32,R,ugm-3,103,R,ugm-3
15-01-2000,11:00,31,R,ugm-3,27,R,ugm-3,74,R,ugm-3
15-01-2000,12:00,29,R,ugm-3,27,R,ugm-3,71,R,ugm-3
15-01-2000,13:00,29,R,ugm-3,31,R,ugm-3,74,R,ugm-3
15-01-2000,14:00,24,R,ugm-3,34,R,ugm-3,71,R,ugm-3
15-01-2000,15:00,38,R,ugm-3,42,R,ugm-3,99,R,ugm-3
15-01-2000,16:00,29,R,ugm-3,48,R,ugm-3,92,R,ugm-3
15-01-2000,17:00,40,R,ugm-3,59,R,ugm-3,120,R,ugm-3
15-01-2000,18:00,45,R,ugm-3,57,R,ugm-3,126,R,ugm-3
15-01-2000,19:00,31,R,ugm-3,52,R,ugm-3,99,R,ugm-3
15-01-2000,20:00,40,R,ugm-3,53,R,ugm-3,115,R,ugm-3
15-01-2000,21:00,49,R,ugm-3,55,R,ugm-3,130,R,ugm-3
15-01-2000,22:00,36,R,ugm-3,48,R,ugm-3,103,R,ugm-3
15-01-2000,23:00,21,R,ugm-3,40,R,ugm-3,73,R,ugm-3
15-01-2000,24:00,31,R,ugm-3,40,R,ugm-3,88,R,ugm-3
16-01-2000,01:00,18,R,ugm-3,32,R,ugm-3,59,R,ugm-3
16-01-2000,02:00,9,R,ugm-3,27,R,ugm-3,40,R,ugm-3
16-01-2000,03:00,8,R,ugm-3,23,R,ugm-3,34,R,ugm-3
16-01-2000,04:00,4,R,ugm-3,21,R,ugm-3,27,R,ugm-3
16-01-2000,05:00,1,R,ugm-3,17,R,ugm-3,19,R,ugm-3
16-01-2000,06:00,1,R,ugm-3,19,R,ugm-3,21,R,ugm-3
16-01-2000,07:00,6,R,ugm-3,31,R,ugm-3,40,R,ugm-3
16-01-2000,08:00,23,R,ugm-3,36,R,ugm-3,71,R,ugm-3
16-01-2000,09:00,11,R,ugm-3,34,R,ugm-3,52,R,ugm-3
16-01-2000,10:00,16,R,ugm-3,38,R,ugm-3,63,R,ugm-3
16-01-2000,11:00,33,R,ugm-3,42,R,ugm-3,92,R,ugm-3
16-01-2000,12:00,54,R,ugm-3,50,R,ugm-3,132,R,ugm-3
16-01-2000,13:00,63,R,ugm-3,53,R,ugm-3,149,R,ugm-3
16-01-2000,14:00,66,R,ugm-3,53,R,ugm-3,155,R,ugm-3
16-01-2000,15:00,53,R,ugm-3,48,R,ugm-3,128,R,ugm-3
16-01-2000,16:00,80,R,ugm-3,59,R,ugm-3,181,R,ugm-3
16-01-2000,17:00,119,R,ugm-3,65,R,ugm-3,246,R,ugm-3
16-01-2000,18:00,140,R,ugm-3,63,R,ugm-3,277,R,ugm-3
16-01-2000,19:00,145,R,ugm-3,61,R,ugm-3,283,R,ugm-3
16-01-2000,20:00,139,R,ugm-3,59,R,ugm-3,271,R,ugm-3
16-01-2000,21:00,128,R,ugm-3,59,R,ugm-3,254,R,ugm-3
16-01-2000,22:00,108,R,ugm-3,55,R,ugm-3,220,R,ugm-3
16-01-2000,23:00,111,R,ugm-3,53,R,ugm-3,223,R,ugm-3
16-01-2000,24:00,75,R,ugm-3,50,R,ugm-3,164,R,ugm-3
17-01-2000,01:00,63,R,ugm-3,46,R,ugm-3,141,R,ugm-3
17-01-2000,02:00,40,R,ugm-3,46,R,ugm-3,107,R,ugm-3
17-01-2000,03:00,30,R,ugm-3,44,R,ugm-3,90,R,ugm-3
17-01-2000,04:00,18,R,ugm-3,44,R,ugm-3,71,R,ugm-3
17-01-2000,05:00,15,R,ugm-3,40,R,ugm-3,63,R,ugm-3
17-01-2000,06:00,18,R,ugm-3,42,R,ugm-3,69,R,ugm-3
17-01-2000,07:00,38,R,ugm-3,40,R,ugm-3,97,R,ugm-3
17-01-2000,08:00,73,R,ugm-3,48,R,ugm-3,159,R,ugm-3
17-01-2000,09:00,101,R,ugm-3,57,R,ugm-3,212,R,ugm-3
17-01-2000,10:00,74,R,ugm-3,48,R,ugm-3,160,R,ugm-3
17-01-2000,11:00,79,R,ugm-3,52,R,ugm-3,172,R,ugm-3
17-01-2000,12:00,100,R,ugm-3,59,R,ugm-3,212,R,ugm-3
17-01-2000,13:00,134,R,ugm-3,63,R,ugm-3,267,R,ugm-3
17-01-2000,14:00,94,R,ugm-3,59,R,ugm-3,202,R,ugm-3
17-01-2000,15:00,118,R,ugm-3,63,R,ugm-3,243,R,ugm-3
17-01-2000,16:00,196,R,ugm-3,73,R,ugm-3,372,R,ugm-3
17-01-2000,17:00,194,R,ugm-3,73,R,ugm-3,369,R,ugm-3
17-01-2000,18:00,213,R,ugm-3,78,R,ugm-3,403,R,ugm-3
17-01-2000,19:00,235,R,ugm-3,71,R,ugm-3,430,R,ugm-3
17-01-2000,20:00,189,R,ugm-3,65,R,ugm-3,353,R,ugm-3
17-01-2000,21:00,111,R,ugm-3,53,R,ugm-3,223,R,ugm-3
17-01-2000,22:00,78,R,ugm-3,53,R,ugm-3,172,R,ugm-3
17-01-2000,23:00,116,R,ugm-3,55,R,ugm-3,233,R,ugm-3
17-01-2000,24:00,69,R,ugm-3,50,R,ugm-3,155,R,ugm-3
18-01-2000,01:00,40,R,ugm-3,44,R,ugm-3,105,R,ugm-3
18-01-2000,02:00,35,R,ugm-3,44,R,ugm-3,97,R,ugm-3
18-01-2000,03:00,23,R,ugm-3,40,R,ugm-3,74,R,ugm-3
18-01-2000,04:00,18,R,ugm-3,40,R,ugm-3,67,R,ugm-3
18-01-2000,05:00,13,R,ugm-3,40,R,ugm-3,59,R,ugm-3
18-01-2000,06:00,16,R,ugm-3,44,R,ugm-3,69,R,ugm-3
18-01-2000,07:00,34,R,ugm-3,48,R,ugm-3,99,R,ugm-3
18-01-2000,08:00,110,R,ugm-3,59,R,ugm-3,227,R,ugm-3
18-01-2000,09:00,161,R,ugm-3,65,R,ugm-3,311,R,ugm-3
18-01-2000,10:00,154,R,ugm-3,63,R,ugm-3,298,R,ugm-3
18-01-2000,11:00,146,R,ugm-3,61,R,ugm-3,285,R,ugm-3
18-01-2000,12:00,73,R,ugm-3,50,R,ugm-3,160,R,ugm-3
18-01-2000,13:00,56,R,ugm-3,46,R,ugm-3,132,R,ugm-3
18-01-2000,14:00,50,R,ugm-3,46,R,ugm-3,122,R,ugm-3
18-01-2000,15:00,85,R,ugm-3,55,R,ugm-3,185,R,ugm-3
18-01-2000,16:00,83,R,ugm-3,52,R,ugm-3,178,R,ugm-3
18-01-2000,17:00,84,R,ugm-3,59,R,ugm-3,187,R,ugm-3
18-01-2000,18:00,79,R,ugm-3,55,R,ugm-3,176,R,ugm-3
18-01-2000,19:00,45,R,ugm-3,46,R,ugm-3,115,R,ugm-3
18-01-2000,20:00,24,R,ugm-3,38,R,ugm-3,74,R,ugm-3
18-01-2000,21:00,23,R,ugm-3,38,R,ugm-3,73,R,ugm-3
18-01-2000,22:00,18,R,ugm-3,36,R,ugm-3,63,R,ugm-3
18-01-2000,23:00,31,R,ugm-3,42,R,ugm-3,90,R,ugm-3
18-01-2000,24:00,21,R,ugm-3,32,R,ugm-3,65,R,ugm-3
19-01-2000,01:00,6,R,ugm-3,17,R,ugm-3,27,R,ugm-3
19-01-2000,02:00,6,R,ugm-3,21,R,ugm-3,31,R,ugm-3
19-01-2000,03:00,4,R,ugm-3,17,R,ugm-3,23,R,ugm-3
19-01-2000,04:00,3,R,ugm-3,15,R,ugm-3,19,R,ugm-3
19-01-2000,05:00,3,R,ugm-3,17,R,ugm-3,21,R,ugm-3
19-01-2000,06:00,5,R,ugm-3,23,R,ugm-3,31,R,ugm-3
19-01-2000,07:00,29,R,ugm-3,38,R,ugm-3,82,R,ugm-3
19-01-2000,08:00,103,R,ugm-3,61,R,ugm-3,218,R,ugm-3
19-01-2000,09:00,135,R,ugm-3,57,R,ugm-3,264,R,ugm-3
19-01-2000,10:00,84,R,ugm-3,50,R,ugm-3,178,R,ugm-3
19-01-2000,11:00,59,R,ugm-3,46,R,ugm-3,136,R,ugm-3
19-01-2000,12:00,46,R,ugm-3,44,R,ugm-3,115,R,ugm-3
19-01-2000,13:00,41,R,ugm-3,44,R,ugm-3,107,R,ugm-3
19-01-2000,14:00,30,R,ugm-3,40,R,ugm-3,86,R,ugm-3
19-01-2000,15:00,43,R,ugm-3,48,R,ugm-3,113,R,ugm-3
19-01-2000,16:00,35,R,ugm-3,46,R,ugm-3,99,R,ugm-3
19-01-2000,17:00,73,R,ugm-3,65,R,ugm-3,176,R,ugm-3
19-01-2000,18:00,136,R,ugm-3,74,R,ugm-3,283,R,ugm-3
19-01-2000,19:00,109,R,ugm-3,71,R,ugm-3,237,R,ugm-3
19-01-2000,20:00,133,R,ugm-3,67,R,ugm-3,269,R,ugm-3
19-01-2000,21:00,136,R,ugm-3,69,R,ugm-3,277,R,ugm-3
19-01-2000,22:00,124,R,ugm-3,69,R,ugm-3,258,R,ugm-3
19-01-2000,23:00,150,R,ugm-3,61,R,ugm-3,290,R,ugm-3
19-01-2000,24:00,134,R,ugm-3,53,R,ugm-3,258,R,ugm-3
20-01-2000,01:00,69,R,ugm-3,46,R,ugm-3,151,R,ugm-3
20-01-2000,02:00,36,R,ugm-3,44,R,ugm-3,99,R,ugm-3
20-01-2000,03:00,29,R,ugm-3,46,R,ugm-3,90,R,ugm-3
20-01-2000,04:00,39,R,ugm-3,46,R,ugm-3,105,R,ugm-3
20-01-2000,05:00,55,R,ugm-3,50,R,ugm-3,134,R,ugm-3
20-01-2000,06:00,40,R,ugm-3,48,R,ugm-3,109,R,ugm-3
20-01-2000,07:00,74,R,ugm-3,52,R,ugm-3,164,R,ugm-3
20-01-2000,08:00,126,R,ugm-3,57,R,ugm-3,250,R,ugm-3
20-01-2000,09:00,168,R,ugm-3,57,R,ugm-3,313,R,ugm-3
20-01-2000,10:00,146,R,ugm-3,57,R,ugm-3,281,R,ugm-3
20-01-2000,11:00,153,R,ugm-3,61,R,ugm-3,294,R,ugm-3
20-01-2000,12:00,124,R,ugm-3,55,R,ugm-3,244,R,ugm-3
20-01-2000,13:00,100,R,ugm-3,57,R,ugm-3,210,R,ugm-3
20-01-2000,14:00,111,R,ugm-3,55,R,ugm-3,225,R,ugm-3
20-01-2000,15:00,,,,,,,,,
20-01-2000,16:00,115,R,ugm-3,61,R,ugm-3,237,R,ugm-3
20-01-2000,17:00,120,R,ugm-3,67,R,ugm-3,250,R,ugm-3
20-01-2000,18:00,165,R,ugm-3,71,R,ugm-3,323,R,ugm-3
20-01-2000,19:00,95,R,ugm-3,61,R,ugm-3,206,R,ugm-3
20-01-2000,20:00,64,R,ugm-3,57,R,ugm-3,155,R,ugm-3
20-01-2000,21:00,69,R,ugm-3,55,R,ugm-3,160,R,ugm-3
20-01-2000,22:00,64,R,ugm-3,55,R,ugm-3,153,R,ugm-3